Regional Weather Roundup
Issued by NWS

Home | Current Version | Previous Version | Text Only | Print | Product List | Glossary Off
Versions: 1 2 3 4 5 6 7 8 9 10 11 12 13 14 15 16 17 18 19 20 21 22 23 24 25 26

000
ASUS45 KBOI 280610
RWRID

IDAHO REGIONAL WEATHER ROUNDUP
NATIONAL WEATHER SERVICE BOISE ID
1200 AM MDT FRI JUL 28 2017

NOTE: "FAIR" INDICATES FEW OR NO CLOUDS BELOW 12000 FEET
WITH NO SIGNIFICANT WEATHER AND/OR OBSTRUCTIONS TO VISIBILITY

IDZ012-014-280700-
SOUTHWEST IDAHO


CITY           SKY/WX    TMP DP  RH WIND       PRES   REMARKS
BOISE          CLEAR     76  44  32 SE7       29.98S
CALDWELL       CLEAR     72  56  57 NE5       29.96S
MOUNTAIN HOME  CLEAR     75  43  31 NE3       29.99S
$$

IDZ016-017-280700-
SOUTHCENTRAL IDAHO


CITY           SKY/WX    TMP DP  RH WIND       PRES   REMARKS
BURLEY         CLEAR     67  52  58 E7        30.09F
JEROME         CLEAR     70  54  56 E12       30.10R
TWIN FALLS     CLEAR     66  50  56 E5        30.09S
$$

IDZ019>023-280700-
SOUTHEAST IDAHO


CITY           SKY/WX    TMP DP  RH WIND       PRES   REMARKS
IDAHO FALLS    CLEAR     55  54  96 N6        30.18R
POCATELLO      CLEAR     58  52  80 N6        30.15R
REXBURG        CLEAR     57  53  86 E6        30.19R
$$

IDZ006-010-011-018-031-032-280700-
CENTRAL IDAHO MOUNTAINS


CITY           SKY/WX    TMP DP  RH WIND       PRES   REMARKS
MCCALL         CLEAR     64  48  56 N5        30.14R
HAILEY         CLEAR     61  50  67 NW10      30.22S
STANLEY          N/A     52  46  80 SE5       30.28S
SALMON         NOT AVBL
CHALLIS        CLEAR     58  51  78 CALM      30.21R
$$

IDZ002-004-006-007-026-280700-
NORTHERN IDAHO


CITY           SKY/WX    TMP DP  RH WIND       PRES   REMARKS
LEWISTON       CLEAR     77  39  25 S7        29.94R
LOWELL           N/A     69  57  65 N3        29.97R
COEUR D`ALENE  CLEAR     69  50  50 S6        29.98R
MULLAN PASS    CLEAR     63  35  35 SW7       30.20S
$$




USA.gov is the U.S. government's official web portal to all federal, state and local government web resources and services.